This is the latest recevied weather packets stored in our database for station/object K1AWR. If no packets are shown the sender has not sent any weather packets the latest 10 day(s).
| Time | Temp. | Humidity | Pressure | Rain* | Wind** | Luminosity | Snow |
|---|---|---|---|---|---|---|---|
| 1778023526 | 20.56° C | 56% | 1008.6 hPa | 0 mm | - | 10 W/m² | - |
| 1778023223 | 20.56° C | 56% | 1008.8 hPa | 0 mm | - | 12 W/m² | - |
| 1778022920 | 21.11° C | 55% | 1008.5 hPa | 0 mm | - | 16 W/m² | - |
| 1778022619 | 21.11° C | 55% | 1008.4 hPa | 0 mm | - | 19 W/m² | - |
| 1778022316 | 21.11° C | 55% | 1008.1 hPa | 0 mm | - | 23 W/m² | - |
| 1778022012 | 21.67° C | 55% | 1008.2 hPa | 0 mm | - | 28 W/m² | - |
| 1778021709 | 21.67° C | 53% | 1008 hPa | 0 mm | - | 36 W/m² | - |
| 1778021405 | 21.67° C | 53% | 1008 hPa | 0 mm | - | 39 W/m² | - |
| 1778021102 | 22.22° C | 53% | 1007.8 hPa | 0 mm | - | 41 W/m² | - |
| 1778020799 | 22.22° C | 53% | 1007.8 hPa | 0 mm | - | 45 W/m² | - |
| 1778020496 | 22.22° C | 52% | 1007.9 hPa | 0 mm | - | 48 W/m² | - |
| 1778020193 | 22.22° C | 52% | 1007.9 hPa | 0 mm | - | 53 W/m² | - |
| 1778019889 | 22.78° C | 51% | 1007.9 hPa | 0 mm | - | 56 W/m² | - |
| 1778019584 | 22.78° C | 51% | 1007.9 hPa | 0 mm | - | 48 W/m² | - |
| 1778019282 | 22.78° C | 51% | 1007.7 hPa | 0 mm | - | 49 W/m² | - |
| 1778018979 | 23.33° C | 50% | 1007.7 hPa | 0 mm | - | 52 W/m² | - |
| 1778018676 | 23.33° C | 50% | 1007.4 hPa | 0 mm | - | 65 W/m² | - |
| 1778018374 | 23.33° C | 49% | 1007.6 hPa | 0 mm | - | 77 W/m² | - |
| 1778018072 | 23.89° C | 50% | 1007.7 hPa | 0 mm | - | 126 W/m² | - |
| 1778017769 | 23.33° C | 49% | 1007.7 hPa | 0 mm | - | 81 W/m² | - |
| 1778017467 | 23.89° C | 48% | 1007.8 hPa | 0 mm | - | 82 W/m² | - |
| 1778017164 | 23.89° C | 47% | 1007.9 hPa | 0 mm | - | 89 W/m² | - |
| 1778016862 | 23.89° C | 48% | 1007.9 hPa | 0 mm | - | 99 W/m² | - |
| 1778016558 | 24.44° C | 47% | 1007.8 hPa | 0 mm | - | 147 W/m² | - |
| 1778016255 | 24.44° C | 48% | 1007.8 hPa | 0 mm | - | 255 W/m² | - |
* Rain latest hour (hover to see other rain measurements)
** Current wind speed in m/s (hover to see current wind gust speed)